Terminal Aerodrome Forecast
Issued by NWS

Home | Current Version | Previous Version | Text Only | Print | Product List | Glossary On
Versions: 1 2 3 4 5 6 7 8 9 10 11 12 13 14 15 16 17
000
FTUS42 KMLB 220812 AAA
TAFSFB
TAF AMD
KSFB 220812Z 2208/2306 28006KT P6SM SCT012
      TEMPO 2208/2210 BKN012
     FM221400 34008KT P6SM FEW030 SCT250
     FM221800 02008KT P6SM SCT040 BKN250
     FM230000 05011KT P6SM SCT060=

USA.gov is the U.S. government's official web portal to all federal, state and local government web resources and services.